Location: Devore Heights
(34.2372°N, 117.4156°W)
Time: 08:20:03
(UTC+00:00)

Altair - Pass Details

Date: 13 September 2024
Orbit: 1501 x 1682 km, 47.2° (Epoch: 07 October)

Event Time Altitude Azimuth Distance (km) Brightness Sun altitude
Rises 14:29:16 0° 294° (WNW) 4,927 9.6 11.0°
Reaches altitude 10° 14:32:45 10° 302° (WNW) 3,945 9.2 11.7°
Maximum altitude 14:42:14 41° 10° (N) 2,268 8.6 13.7°
Drops below altitude 10° 14:51:35 10° 79° (E) 3,898 11.4 15.6°
Sets 14:54:59 0° 86° (E) 4,863 11.8 16.3°
